Location: Bartshausen
(51.8454°N, 9.8167°E)
Time: 11:00:08
(UTC+00:00)

USA 238 - Pass Details

Date: 08 November 2025
Orbit: 887 x 1324 km, 63.4° (Epoch: 24 November)

Event Time Altitude Azimuth Distance (km) Brightness Sun altitude
Exits shadow 03:33:09 48° 321° (NW) 1,324 3.9 -27.0°
Maximum altitude 03:33:30 49° 331° (NNW) 1,322 4.0 -27.0°
Drops below altitude 10° 03:40:20 10° 45° (NE) 3,002 6.7 -25.9°
Sets 03:43:18 0° 51° (NE) 4,033 7.6 -25.5°
